Weather History for KPPA - February, 2013

Change the Weather History Date:

Monday, February 25, 2013

  Actual Average Record
Temperature  
Mean Temperature 26 °F -  
Max Temperature 30 °F 56 °F 78 °F (1976)
Min Temperature 19 °F 28 °F 3 °F (1965)
Degree Days  
Heating Degree Days 40    
Moisture  
Dew Point 26 °F    
Average Humidity 92    
Maximum Humidity 100    
Minimum Humidity 80    
Precipitation  
Precipitation 0.00 in - - ()
Sea Level Pressure  
Sea Level Pressure 29.76 in    
Wind  
Wind Speed 29 mph (North)    
Max Wind Speed 46 mph    
Max Gust Speed 55 mph    
Visibility 1 miles    
Events Snow , Thunderstorm    
Averages and records for this station are not official NWS values.
T = Trace of Precipitation, MM = Missing Value Source: NWS Daily Summary

Daily Weather History Graph

Daily Weather History Graph

Search for Another Location

Airport or City:

Trip Planner

Search our weather history database for the weather conditions in past years. The results will help you decide how hot, cold, wet, or windy it might be!

Date:

Astronomy

Feb. 25, 2013 Rise Set
Actual Time 7:18 AM CST 6:35 PM CST
Civil Twilight 6:52 AM CST 7:01 PM CST
Nautical Twilight 6:23 AM CST 7:31 PM CST
Astronomical Twilight 5:53 AM CST 8:00 PM CST
Moon 6:48 PM CST (2/25) 6:51 AM CST (2/25)
Length of Visible Light 12h 08m
Length of Day
11h 17m
Full, 100% of the Moon is Illuminated
Feb 25
Full
Feb 25
Full
Mar 4
Last Quarter
Mar 11
New
Mar 19
First Quarter

Hourly Weather History & Observations

Time (CST) Temp. Windchill Dew Point Humidity Pressure Visibility Wind Dir Wind Speed Gust Speed Precip Events Conditions
12:15 AM 28.4 °F 13.8 °F 26.6 °F 93% 29.76 in 1.0 mi NNE 25.3 mph 35.7 mph N/A Snow Light Snow
12:35 AM 28.4 °F 14.1 °F 26.6 °F 93% 29.76 in 0.5 mi NNE 24.2 mph 31.1 mph N/A Snow Snow
12:55 AM 28.4 °F 15.4 °F 26.6 °F 93% 29.76 in - NNE 19.6 mph 29.9 mph N/A Thunderstorm Thunderstorm
1:15 AM 28.4 °F 13.5 °F 26.6 °F 93% 29.73 in - North 26.5 mph 32.2 mph N/A Thunderstorm Thunderstorm
1:35 AM 28.4 °F 15.1 °F 26.6 °F 93% 29.77 in - North 20.7 mph 35.7 mph N/A   Overcast
1:55 AM 28.4 °F 14.1 °F 26.6 °F 93% 29.74 in - North 24.2 mph 27.6 mph N/A Thunderstorm Thunderstorm
2:15 AM 28.4 °F 14.4 °F 26.6 °F 93% 29.77 in - North 23.0 mph 29.9 mph N/A   Overcast
2:35 AM 28.4 °F 13.5 °F 26.6 °F 93% 29.74 in - NNE 26.5 mph 31.1 mph N/A   Overcast
2:55 AM 28.4 °F 13.0 °F 26.6 °F 93% 29.72 in - NNE 28.8 mph 35.7 mph N/A   Overcast
3:15 AM 28.4 °F 13.8 °F 26.6 °F 93% 29.72 in - NNE 25.3 mph 32.2 mph N/A   Overcast
3:35 AM 28.4 °F 12.5 °F 26.6 °F 93% 29.71 in - NNE 31.1 mph 36.8 mph N/A   Overcast
3:55 AM 28.4 °F 13.3 °F 26.6 °F 93% 29.70 in - NNE 27.6 mph 38.0 mph N/A   Overcast
4:15 AM 28.4 °F 13.3 °F 26.6 °F 93% 29.70 in - NNE 27.6 mph 35.7 mph N/A   Overcast
4:35 AM 28.4 °F 13.0 °F 26.6 °F 93% 29.69 in - NNE 28.8 mph 34.5 mph N/A   Overcast
4:55 AM 28.4 °F 13.0 °F 26.6 °F 93% 29.70 in - NNE 28.8 mph 41.4 mph N/A   Overcast
5:15 AM 26.6 °F 10.8 °F 26.6 °F 100% 29.70 in - North 27.6 mph 38.0 mph N/A   Overcast
5:35 AM 26.6 °F 10.0 °F 26.6 °F 100% 29.69 in - NNE 31.1 mph 38.0 mph N/A   Overcast
5:55 AM 26.6 °F 9.3 °F 26.6 °F 100% 29.67 in - NNE 34.5 mph 42.6 mph N/A   Overcast
6:15 AM 26.6 °F 9.6 °F 26.6 °F 100% 29.66 in - NNE 33.4 mph 40.3 mph N/A   Unknown
6:35 AM 26.6 °F 9.8 °F 26.6 °F 100% 29.68 in - NNE 32.2 mph 41.4 mph N/A   Overcast
6:55 AM 26.6 °F 8.9 °F 26.6 °F 100% 29.66 in - NNE 36.8 mph 44.9 mph N/A   Overcast
7:15 AM 26.6 °F 8.9 °F 26.6 °F 100% 29.65 in - NNE 36.8 mph 48.3 mph N/A   Overcast
7:35 AM 28.4 °F 10.6 °F 26.6 °F 93% 29.64 in - North 41.4 mph 47.2 mph N/A   Overcast
7:55 AM 28.4 °F 9.8 °F 26.6 °F 93% 29.63 in - North 46.0 mph 55.2 mph N/A   Overcast
8:15 AM 28.4 °F 11.0 °F 26.6 °F 93% 29.67 in - North 39.1 mph 52.9 mph N/A   Unknown
8:35 AM 28.4 °F 12.0 °F 26.6 °F 93% 29.70 in - North 33.4 mph 43.7 mph N/A   Overcast
8:55 AM 28.4 °F 12.0 °F 26.6 °F 93% 29.72 in - North 33.4 mph 44.9 mph N/A   Overcast
9:15 AM 28.4 °F 12.0 °F 26.6 °F 93% 29.73 in - North 33.4 mph 41.4 mph N/A   Overcast
9:35 AM 28.4 °F 11.6 °F 26.6 °F 93% 29.72 in - North 35.7 mph 46.0 mph N/A   Overcast
9:55 AM 28.4 °F 12.3 °F 26.6 °F 93% 29.74 in - North 32.2 mph 42.6 mph N/A   Overcast
10:15 AM 28.4 °F 11.6 °F 26.6 °F 93% 29.74 in - North 35.7 mph 46.0 mph N/A   Overcast
10:35 AM 28.4 °F 11.2 °F 26.6 °F 93% 29.74 in - North 38.0 mph 44.9 mph N/A   Overcast
10:55 AM 28.4 °F 11.0 °F 26.6 °F 93% 29.74 in - North 39.1 mph 49.5 mph N/A   Overcast
11:15 AM 28.4 °F 10.6 °F 26.6 °F 93% 29.75 in - North 41.4 mph 49.5 mph N/A   Overcast
11:35 AM 28.4 °F 10.6 °F 26.6 °F 93% 29.76 in - North 41.4 mph 52.9 mph N/A   Overcast
11:55 AM 28.4 °F 11.0 °F 26.6 °F 93% 29.76 in - North 39.1 mph 49.5 mph N/A   Overcast
12:15 PM 28.4 °F 10.4 °F 26.6 °F 93% 29.76 in - North 42.6 mph 50.6 mph N/A   Mostly Cloudy
12:35 PM 28.4 °F 10.2 °F 26.6 °F 93% 29.75 in - North 43.7 mph 52.9 mph N/A   Unknown
12:55 PM 28.4 °F 10.4 °F 26.6 °F 93% 29.75 in - North 42.6 mph 54.1 mph N/A   Unknown
1:15 PM 28.4 °F 10.4 °F 26.6 °F 93% 29.75 in - North 42.6 mph 51.8 mph N/A   Unknown
1:35 PM 28.4 °F 10.4 °F 26.6 °F 93% 29.75 in - North 42.6 mph 55.2 mph N/A   Unknown
1:55 PM 30.2 °F 12.9 °F 28.4 °F 93% 29.75 in - North 42.6 mph 50.6 mph N/A   Unknown
2:15 PM 30.2 °F 13.5 °F 28.4 °F 93% 29.75 in - North 39.1 mph 47.2 mph N/A   Unknown
2:35 PM 30.2 °F 13.9 °F 28.4 °F 93% 29.75 in - North 36.8 mph 50.6 mph N/A   Mostly Cloudy
2:55 PM 30.2 °F 14.3 °F 28.4 °F 93% 29.76 in - North 34.5 mph 49.5 mph N/A   Overcast
3:15 PM 30.2 °F 14.5 °F 28.4 °F 93% 29.76 in - North 33.4 mph 38.0 mph N/A   Unknown
4:15 PM 30.2 °F 14.1 °F 28.4 °F 93% 29.78 in - North 35.7 mph 47.2 mph N/A   Unknown
4:35 PM 30.2 °F 14.3 °F 28.4 °F 93% 29.79 in - North 34.5 mph 41.4 mph N/A   Overcast
4:55 PM 30.2 °F 15.4 °F 28.4 °F 93% 29.80 in - North 28.8 mph 39.1 mph N/A   Overcast
5:15 PM 30.2 °F 14.5 °F 28.4 °F 93% 29.80 in - North 33.4 mph 39.1 mph N/A   Unknown
5:35 PM 30.2 °F 14.7 °F 28.4 °F 93% 29.81 in - North 32.2 mph 40.3 mph N/A   Unknown
5:55 PM 30.2 °F 15.2 °F 28.4 °F 93% 29.82 in - North 29.9 mph 40.3 mph N/A   Overcast
6:15 PM 30.2 °F 14.9 °F 26.6 °F 86% 29.82 in - North 31.1 mph 39.1 mph N/A   Overcast
6:35 PM 30.2 °F 15.2 °F 26.6 °F 86% 29.82 in - North 29.9 mph 36.8 mph N/A   Overcast
6:55 PM 30.2 °F 14.9 °F 26.6 °F 86% 29.83 in - North 31.1 mph 39.1 mph N/A   Overcast
7:15 PM 30.2 °F 15.2 °F 26.6 °F 86% 29.84 in - North 29.9 mph 39.1 mph N/A   Overcast
7:35 PM 30.2 °F 14.9 °F 26.6 °F 86% 29.84 in - North 31.1 mph 38.0 mph N/A   Overcast
7:55 PM 28.4 °F 13.3 °F 26.6 °F 93% 29.84 in - North 27.6 mph 34.5 mph N/A   Overcast
8:15 PM 28.4 °F 13.0 °F 26.6 °F 93% 29.84 in - North 28.8 mph 34.5 mph N/A   Overcast
8:35 PM 28.4 °F 14.1 °F 24.8 °F 86% 29.84 in - North 24.2 mph 36.8 mph N/A   Overcast
8:55 PM 28.4 °F 15.4 °F 23.0 °F 80% 29.84 in - North 19.6 mph - N/A   Mostly Cloudy
9:15 PM 26.6 °F 14.3 °F 23.0 °F 86% 29.85 in - North 16.1 mph - N/A   Unknown
9:35 PM 26.6 °F 13.4 °F 23.0 °F 86% 29.86 in - NNW 18.4 mph - N/A   Unknown
9:55 PM 26.6 °F 14.7 °F 21.2 °F 80% 29.86 in - NNW 15.0 mph - N/A   Unknown
10:15 PM 24.8 °F 12.9 °F 21.2 °F 86% 29.87 in - NNW 13.8 mph - N/A   Unknown
10:35 PM 24.8 °F 14.0 °F 21.2 °F 86% 29.88 in - NW 11.5 mph - N/A   Unknown
10:55 PM 23.0 °F 11.7 °F 19.4 °F 86% 29.86 in - NNW 11.5 mph - N/A   Unknown
11:15 PM 23.0 °F 10.1 °F 19.4 °F 86% 29.86 in - NNW 15.0 mph - N/A   Unknown
11:35 PM 21.2 °F 10.1 °F 19.4 °F 93% 29.86 in - NW 10.4 mph - N/A   Unknown
11:55 PM 19.4 °F 8.6 °F 17.6 °F 93% 29.86 in - NW 9.2 mph - N/A   Unknown